User: anonymous   Login
Location: Unspecified
(0.0000°N, 0.0000°E)
Time: 21:46:23
(UTC+00:00)
Language:

COSMOS 2463 - Orbit

View from above orbital plane
View from above orbital plane
View from above satellite
View from above satellite

Ground track
Ground track

The orbit data is extracted from the following two-line orbital elements,

1 36519U 10017A   18265.93564839 -.00000042 +00000-0 -63715-4 0  9996
2 36519 082.9636 164.2904 0037530 046.4549 313.9712 13.71427807420895
Epoch (UTC): 22 September 2018 22:27:20
Eccentricity: 0.0037530
inclination: 82.9636°
perigee height: 967 km
apogee height: 1022 km
right ascension of ascending node: 164.2904°
argument of perigee: 46.4549°
revolutions per day: 13.71427807
mean anomaly at epoch: 313.9712°
orbit number at epoch: 42089

The dashed part of the orbit path shows where the satellite is in the earth's shadow,  

DLR